User: anonymous   Login
Location: Unspecified
(0.0000°N, 0.0000°E)
Time: 16:19:14
(UTC+00:00)
Language:

OBJECT H - Orbit

View from above orbital plane
View from above orbital plane
View from above satellite
View from above satellite

Ground track
Ground track

The orbit data is extracted from the following two-line orbital elements,

1 43669U 18083H   21334.10293304  .00002537  00000-0  12486-3 0  9994
2 43669  97.4345 356.9126 0009120 314.8080 130.9890 15.18876415171027
Epoch (UTC): 30 November 2021 02:28:13
Eccentricity: 0.0009120
inclination: 97.4345°
perigee height: 503 km
apogee height: 515 km
right ascension of ascending node: 356.9126°
argument of perigee: 314.8080°
revolutions per day: 15.18876415
mean anomaly at epoch: 130.9890°
orbit number at epoch: 17102

The dashed part of the orbit path shows where the satellite is in the earth's shadow,  

DLR